AirNav   Air Wisconsin pilot careers
 
 1116 users online  

3G6 Tri-City Airport
Sebring, Ohio, USA

GOING TO SEBRING?


FAA INFORMATION EFFECTIVE 19 JULY 2018

Location

FAA Identifier: 3G6
Lat/Long: 40-54-21.6000N / 081-00-00.1000W
40-54.360000N / 081-00.001667W
40.9060000 / -81.0000278
(estimated)
Elevation: 1187.5 ft. / 362.0 m (surveyed)
Variation: 04W (1965)
From city: 1 mile SE of SEBRING, OH
Time zone: UTC -4 (UTC -5 during Standard Time)
Zip code: 44609

Airport Operations

Airport use: Open to the public
Activation date: 07/1969
Control tower: no
ARTCC: CLEVELAND CENTER
FSS: CLEVELAND FLIGHT SERVICE STATION
NOTAMs facility: CLE (NOTAM-D service available)
Attendance: 0900-DUSK
Wind indicator: lighted
Segmented circle: no
Lights: ACTVT NSTD MIRL RWY 17/35 - CTAF/MULTICOM 122.9 MHZ

Airport Communications

CTAF: 122.9
AKRON-CANTON APPROACH: 125.5 [0600-2300]
AKRON-CANTON DEPARTURE: 125.5 [0600-2300]
  • APCH/DEP SERVICE PROVIDED BY CLEVELAND ARTCC (ZOB) ON FREQS 120.6/298.95 (CHARDON RCAG) OR CALL CLEVELAND ARTCC (ZOB) 440-774-0485 WHEN AKRON-CANTON (CAK) APCH CTL CLSD.

Nearby radio navigation aids

VOR radial/distance  VOR name  Freq  Var
ACOr147/15.2AKRON VOR/DME114.4004W
BSVr067/22.0BRIGGS VOR/DME112.4004W
YNGr215/29.4YOUNGSTOWN VORTAC109.0005W
EWCr286/36.1ELLWOOD CITY VOR/DME115.8008W
CXRr174/37.4CHARDON VOR/DME112.7005W

 
NDB name  Hdg/Dist  Freq  Var  ID
CASTLE264/27.427209WUCP ..- -.-. .--.

Airport Services

Fuel available: 100LL
100LL FUEL AVAILABLE UPON REQUEST. CALL AIRPORT MANAGER (330) 428-1269
Parking: hangars and tiedowns
Bottled oxygen: NONE
Bulk oxygen: NONE

Runway Information

Runway 17/35

Dimensions: 2768 x 45 ft. / 844 x 14 m
Surface: asphalt, in poor condition
Runway edge lights: non-standard
NSTD: THLD LGTD WITH 2 BLUE/RED LGTS EACH SIDE
Runway edge markings: RWY 17/35: MARKING NSTD, BASIC, NUMBERS AND CENTERLINE UNDERSIZED.
RUNWAY 17  RUNWAY 35
Latitude: 40-54.585583N40-54.134550N
Longitude: 081-00.044550W080-59.957617W
Elevation: 1184.7 ft.1177.9 ft.
Traffic pattern: leftleft
Runway heading: 176 magnetic, 172 true356 magnetic, 352 true
Markings: NSTDNSTD
Touchdown point: yes, no lightsyes, no lights
Obstructions: 30 ft. trees, 900 ft. from runway, 95 ft. left of centerline, 23:1 slope to clear
RWY 17: OBST CLNS SLOPE 0:1 DUE TO +10-FT TREE 75-FT FM RWY 17 70-FT L
18 ft. pole, 315 ft. from runway, 130 ft. both sides of centerline, 6:1 slope to clear
RWY 35: OBST CLNS SLOPE 0:1 DUE TO +35 FT TREE 175-FT FM RWY 35 125 R

Airport Ownership and Management from official FAA records

Ownership: Privately-owned
Owner: 3G6 L.L.C.
18294 ST. RTE 62
BELOIT, OH 44609
Phone 330-938-1216
Manager: WAYNE HARTER, JR.
18294 ST RTE. 62
BELOIT, OH 44609
Phone 330-428-1269

Airport Operational Statistics

Aircraft based on the field: 18
Single engine airplanes: 18
    
Aircraft operations: avg 21/day *
71% local general aviation
29% transient general aviation
<1% military
<1% air taxi
* for 12-month period ending 26 August 2017

Additional Remarks

APCH/DEP SERVICE PROVIDED BY CLEVELAND ARTCC (ZOB) ON FREQS 120.6/298.95 (CHARDON RCAG) OR CALL CLEVELAND ARTCC (ZOB) 440-774-0485 WHEN AKRON-CANTON (CAK) APCH CTL CLSD.
BIRDS & OTHER WILDLIFE ON & INVOF AIRPORT

Instrument Procedures

NOTE: All procedures below are presented as PDF files. If you need a reader for these files, you should download the free Adobe Reader.

NOT FOR NAVIGATION. Please procure official charts for flight.
FAA instrument procedures published for use from 19 July 2018 at 0901Z to 16 August 2018 at 0900Z.

 
IAPs - Instrument Approach Procedures
VOR OR GPS RWY 17   download (151KB)
NOTE: Special Take-Off Minimums/Departure Procedures apply   download (164KB)

Other nearby airports with instrument procedures:

38D - Salem Airpark Inc (7 nm E)
4G4 - Youngstown Elser Metro Airport (15 nm E)
KCAK - Akron-Canton Regional Airport (20 nm W)
KTSO - Carroll County-Tolson Airport (21 nm S)
02G - Columbiana County Airport (21 nm SE)
 
Loc | Ops | Rwys | IFR | FBO | Links
Com | Nav | Svcs | Stats | Notes

City of Findlay
 
Area around 3G6 (Tri-City Airport)
 
Road maps at: MapQuest Bing Google
 
Aerial photo
WARNING: Photo may not be current or correct
Aerial photo of 3G6 (Tri-City Airport)
Photo taken 03-Jul-2005
from approx. 5000' AGL

Do you have a better or more recent aerial photo of Tri-City Airport that you would like to share? If so, please send us your photo.

 
Sectional chart

 
Airport distance calculator
Flying to Tri-City Airport? Find the distance to fly.

From to 3G6

Sunrise and sunset
Times for 21-Jul-2018
 Local
(UTC-4)
 Zulu
(UTC)
Morning civil twilight05:3909:39
Sunrise06:1110:11
Sunset20:5000:50
Evening civil twilight21:2201:22

Current date and time
Zulu (UTC)  21-Jul-2018 16:17:27
Local (UTC-4)  21-Jul-2018 12:17:27
 
METAR
KCAK 
20nm W 
211551Z 18011G17KT 10SM BKN026 BKN070 OVC130 24/17 A2984 RMK AO2 SLP097 T02390167
KPOV 
22nm NW 
211557Z AUTO 13010G15KT 10SM BKN028 BKN032 23/16 A2985 RMK AO2 T02330164 PWINO
KAKR 
22nm W 
211554Z AUTO 18013G21KT 10SM FEW026 SCT031 SCT045 24/17 A2984 RMK AO2 PK WND 18026/1536 RAE03 SLP094 P0000 T02440167
KYNG 
26nm NE 
211551Z 15013G21KT 10SM SCT032 BKN110 OVC180 25/18 A2986 RMK AO2 SLP102 BINOVC T02500178
KUCP 
28nm E 
211556Z AUTO 16009KT 130V200 10SM FEW036 BKN055 OVC110 25/18 A2988 RMK AO2 SLP125 T02500183
KBVI 
28nm E 
211547Z AUTO 14010G15KT 10SM SCT028 BKN046 OVC065 24/17 A2988
KPHD 
32nm SW 
211553Z AUTO 15007KT 10SM CLR 23/17 A2984 RMK AO2 SLP099 T02280172
KBJJ 
40nm W 
211556Z AUTO 17009KT 9SM -RA SCT010 BKN020 OVC027 18/17 A2984 RMK AO2 SLP099 P0009 T01830172 $
TAF
KCAK 
20nm W 
211121Z 2112/2212 17012KT P6SM VCSH OVC015 FM211600 17012KT P6SM OVC025 FM212000 17014G22KT P6SM VCTS OVC050CB FM220100 13012KT P6SM OVC050
NOTAMs
Click for the latest NOTAMs
NOTAMs are issued by the DoD/FAA and will open in a separate window not controlled by AirNav.

 

 
 

FBO, Fuel Providers, and Aircraft Ground Support

  
 Business Name 
 
 Contact 
 
 Services / Description 
 
Fuel Prices
 
Comments
  
Tri-City Airport 330-938-1216
no information available

If you are affiliated with Tri-City Airport and would like to show here your services, contact info, web link, logo, and more, click here
100LL
PS $4.89 
 Updated 19-Jul-2018
 
   write
PS=Pump service
Update Fuel Prices
 

Would you like to see your business listed on this page?

 If your business provides an interesting product or service to pilots, flight crews, aircraft, or users of the Tri-City Airport, you should consider listing it here.  To start the listing process, click on the button below
 
Add a business
 

Other Pages about Tri-City Airport

Update a link
 
Copyright © AirNav, LLC. All rights reserved. Privacy Policy  Contact